Home   Weather   North Cape   Past weeks
Flag for Norway

Past Weather in North Cape, Norway — Yesterday and Last 2 Weeks

Now
60 °F

Cool.


Feels Like: 60 °F
Forecast: 59 / 52 °F
Wind: 5 mph from East

Location: Honningsvag / Valan

Current Time: Jul 23, 2019 at 6:16:40 pm

Latest Report: Jul 23, 2019 at 5:00 pm


Visibility: N/A

Pressure: 29.96 "Hg

Humidity: 85%

Dew Point: 56 °F

Location of North CapeLocation

Past Weather in North Cape — Graph

°F

North Cape Temperature Yesterday

Maximum temperature yesterday: 76 °F (at 2:00 pm)
Minimum temperature yesterday: 60 °F (at 11:00 pm)
Average temperature yesterday: 67 °F

High & Low Weather Summary for the Past Weeks

 TemperatureHumidityPressure
High76 °F (Jul 22, 2:00 pm)99% (Jul 14, 2:00 am)30.19 "Hg (Jul 14, 2:00 am)
Low38 °F (Jul 14, 2:00 am)42% (Jul 22, 3:00 pm)29.84 "Hg (Jul 22, 9:00 am)
Average51 °F78%30.00 "Hg
* Reported Jul 8 4:00 pm — Jul 23 4:00 pm, North Cape. Weather by CustomWeather, © 2019

Note: Actual official high and low records may vary slightly from our data, if they occured in-between our weather recording intervals... More about our weather records

Advertising

North Cape Weather History for the Previous 24 Hours

Scroll right to see more
 ConditionsComfort  
Time TempWeatherWind HumidityBarometerVisibility
4:00 pm
Tue, Jul 23
55 °FCool.2 mph87%29.96 "HgN/A
3:00 pm54 °FCool.2 mph88%29.97 "HgN/A
2:00 pm54 °FCool.3 mph89%29.97 "HgN/A
1:00 pm55 °FCool.2 mph86%29.97 "HgN/A
12:00 pm55 °FCool.2 mph87%29.97 "HgN/A
11:00 am55 °FCool.2 mph86%29.98 "HgN/A
10:00 am55 °FCool.2 mph85%29.98 "HgN/A
9:00 am56 °FCool.1 mph82%29.98 "HgN/A
8:00 am58 °FCool.1 mph78%29.97 "HgN/A
7:00 am58 °FCool.1 mph78%29.97 "HgN/A
6:00 am58 °FCool.1 mph78%29.98 "HgN/A
5:00 am59 °FCool.1 mph79%29.99 "HgN/A
4:00 am59 °FCool.1 mph80%29.98 "HgN/A
3:00 am59 °FCool.1 mph77%29.99 "HgN/A
2:00 am57 °FCool.1 mph83%30.00 "HgN/A
1:00 am58 °FCool.3 mph83%30.00 "HgN/A
12:00 am59 °FCool.2 mph84%29.99 "HgN/A
11:00 pm
Mon, Jul 22
60 °FCool.3 mph81%29.98 "HgN/A
10:00 pm60 °FCool.3 mph80%29.97 "HgN/A
9:00 pm62 °FCool.2 mph74%29.95 "HgN/A
8:00 pm62 °FCool.2 mph73%29.95 "HgN/A
7:00 pm63 °FMild.5 mph71%29.93 "HgN/A
6:00 pm65 °FMild.10 mph63%29.90 "HgN/A
Weather by CustomWeather, © 2019

See weather overview